This is the latest recevied weather packets stored in our database for station/object KD0JCP-10. If no packets are shown the sender has not sent any weather packets the latest 10 day(s).
| Time | Temp. | Humidity | Pressure | Rain* | Wind** | Luminosity | Snow |
|---|---|---|---|---|---|---|---|
| 1777492590 | 14.44° C | 45% | 1021.7 hPa | 0 mm | - | - | - |
| 1777492290 | 14.44° C | 46% | 1021.8 hPa | 0 mm | - | - | - |
| 1777491990 | 15° C | 45% | 1021.8 hPa | 0 mm | - | - | - |
| 1777491690 | 14.44° C | 44% | 1021.8 hPa | 0 mm | - | - | - |
| 1777491390 | 14.44° C | 47% | 1022 hPa | 0 mm | - | - | - |
| 1777491090 | 14.44° C | 49% | 1022 hPa | 0 mm | - | - | - |
| 1777490790 | 14.44° C | 51% | 1022 hPa | 0 mm | - | - | - |
| 1777490490 | 14.44° C | 51% | 1022.1 hPa | 0 mm | - | - | - |
| 1777490190 | 14.44° C | 50% | 1022.4 hPa | 0 mm | - | - | - |
| 1777489890 | 14.44° C | 48% | 1022.4 hPa | 0 mm | - | - | - |
| 1777489590 | 14.44° C | 45% | 1022.5 hPa | 0 mm | - | - | - |
| 1777489290 | 14.44° C | 46% | 1022.5 hPa | 0 mm | - | - | - |
| 1777488990 | 14.44° C | 50% | 1022.5 hPa | 0 mm | - | - | - |
| 1777488690 | 13.89° C | 49% | 1022.7 hPa | 0 mm | - | - | - |
| 1777488390 | 13.89° C | 49% | 1022.8 hPa | 0 mm | - | - | - |
| 1777488090 | 13.89° C | 47% | 1022.8 hPa | 0 mm | - | - | - |
| 1777487790 | 13.89° C | 48% | 1022.9 hPa | 0 mm | - | - | - |
| 1777487490 | 13.89° C | 50% | 1023.1 hPa | 0 mm | - | - | - |
| 1777487190 | 13.33° C | 54% | 1023 hPa | 0 mm | - | - | - |
| 1777486890 | 13.33° C | 52% | 1023.3 hPa | 0 mm | - | - | - |
| 1777486590 | 13.33° C | 55% | 1023.3 hPa | 0 mm | - | - | - |
| 1777486290 | 13.33° C | 51% | 1023.5 hPa | 0 mm | - | - | - |
| 1777485990 | 12.78° C | 53% | 1023.5 hPa | 0 mm | - | - | - |
| 1777485690 | 12.78° C | 53% | 1023.7 hPa | 0 mm | - | - | - |
| 1777485391 | 12.78° C | 53% | 1023.7 hPa | 0 mm | - | - | - |
* Rain latest hour (hover to see other rain measurements)
** Current wind speed in m/s (hover to see current wind gust speed)